{"data":{"norad_id":66433,"intl_designator":"2025-259M","name":"STARLINK-35457","alt_names":[],"object_type":"PAYLOAD","status":"ACTIVE","operator":null,"country":"US","launch_date":"2025-11-11","launch_site_code":"AFETR","launch_vehicle":null,"mission":null,"orbit_class":"UNKNOWN","rcs_meters":null,"size_class":null,"mass_kg":null,"dimensions":null,"purposes":["comms"],"wikipedia_slug":null,"has_3d_model":false,"image_url":null,"decayed_at":null,"tle_current":{"epoch":"2026-05-25T04:28:30.060192Z","epoch_age_seconds":55632,"freshness":"FRESH","line1":"1 66433U 25259M   26145.18645903  .00012726  00000+0  47108-3 0  9999","line2":"2 66433  42.9990 202.0592 0001237 278.4531  81.6180 15.27587517 31196","mean_motion":15.27587517,"eccentricity":0.0001237,"inclination_deg":42.999,"raan_deg":202.0592,"arg_perigee_deg":278.4531,"mean_anomaly_deg":81.618,"bstar":0.00047108,"rev_number":3119,"period_min":94.266284842913,"perigee_km":482.17786159395,"apogee_km":483.87531346551,"semimajor_km":6861.1635875297,"source":"CELESTRAK","updated_at":"2026-05-25T13:38:21.209026Z"}}}